星链-32764 (STARLINK-32764)

导读

STARLINK-32764是美国SpaceX公司星链(Starlink)项目的卫星,该卫星于北京时间2025年1月10日发射升空,隶属于星链卫星互联网星座组网卫星,旨在为全球范围内用户提供高速低延迟的卫星互联网服务,进一步扩大星链星座的在轨规模与覆盖能力,增强星座整体服务稳定性与覆盖范围。

基本信息
目录编号:
62570
目录名称:
STARLINK-32764
国际标识:
2025-006S
轨道中心:
EARTH
卫星名称:
星链-32764
卫星全名:
星链-32764 (STARLINK-32764)
卫星状态:
在轨 (已飞行603 天)
发射日期:
2025-01-10 UTC
国别 :
美国 (US)
星等 :
--
轨道信息
数据来源 国际轨道数据 AOE轨道数据
星历时间 2026-09-05T00:29:32+0800
15小时前
查看轨道信息
2026-08-31T02:00:00+0800
5天前
查看轨道信息
半长轴 6861.149km 6861.287km
偏心率 0.0001511 0.0001601
轨道倾角 43.003° 43.005°
近地点辐角 273.629° 286.564°
升交点赤经 2.065° 29.949°
平近点角 86.439° 250.748°
近地点 481.975km 482.051km
远地点 484.049km 484.249km
周期 94.266分钟 94.269分钟
每日圈数 15.275927 15.275466
详细信息
固有亮度:
5
最大亮度:
2.5
卫星平台:
Starlink V1.0
覆盖范围:
全球
运营商:
太空探索技术公司
运营商所在国:
美国
制造商(研发单位):
太空探索技术公司
制造商所在国:
美国
使用方式:
暂无
卫星简介
Starlink 计划是 SpaceX 推出的全球卫星互联网项目,通过发射低轨道卫星,为全球尤其是偏远地区提供高速、低延迟的互联网服务。自 2019 年起,Starlink 已部署数千颗卫星,旨在缩小全球数字鸿沟,推动互联网普及。该项目还为军事、航空等行业提供通信支持,带来广泛经济效益。
2D轨道图
3D轨道图
轨道高度分析图
轨道倾角分析图
轨道综合分析图
查看轨道综合分析图
交会数据列表
事件ID 空间交会对象 最接近时刻(TCA) 交会距离 交会风险概率(CRP) 交会风险指数(CRI) 操作
CDM_260907-031405-808606-257021
2026-09-07T
03:14:44+0000
0.925 km
远距离
2.691765E-5 中风险 0.64
CDM_260907-044805-808606-257021
2026-09-07T
04:48:53+0000
1.180 km
极远距离
1.159207E-5 中风险 0.56
CDM_260907-014005-808606-257021
2026-09-07T
01:40:35+0000
2.290 km
极远距离
1.645776E-6 低风险 0.39
CDM_260907-062305-808606-257021
2026-09-07T
06:23:03+0000
2.668 km
极远距离
1.253978E-6 低风险 0.37